TimeMDT,TemperatureF,Dew PointF,Humidity,Sea Level PressureIn,VisibilityMPH,Wind Direction,Wind SpeedMPH,Gust SpeedMPH,PrecipitationIn,Events,Conditions,WindDirDegrees,DateUTC
12:58 AM,71.6,35.1,26,29.85,10.0,NW,9.2,-,N/A,,Clear,320,2013-08-18 06:58:00
1:58 AM,71.2,37.2,29,29.87,10.0,WNW,9.2,-,N/A,,Clear,290,2013-08-18 07:58:00
2:58 AM,68.0,47.8,48,29.88,10.0,WNW,10.4,-,N/A,,Clear,290,2013-08-18 08:58:00
3:58 AM,69.3,49.6,50,29.89,10.0,WNW,10.4,-,N/A,,Clear,290,2013-08-18 09:58:00
4:58 AM,66.9,49.8,54,29.91,10.0,WNW,6.9,-,N/A,,Clear,290,2013-08-18 10:58:00
5:58 AM,67.5,49.5,52,29.92,10.0,WNW,13.8,-,N/A,,Clear,300,2013-08-18 11:58:00
6:58 AM,66.9,48.9,52,29.95,10.0,West,8.1,-,N/A,,Clear,280,2013-08-18 12:58:00
7:58 AM,68.2,49.1,50,29.98,10.0,WNW,10.4,-,N/A,,Clear,300,2013-08-18 13:58:00
8:58 AM,72.3,48.9,43,29.99,10.0,NW,13.8,-,N/A,,Clear,310,2013-08-18 14:58:00
9:58 AM,76.6,48.9,38,29.99,10.0,NW,12.7,-,N/A,,Clear,310,2013-08-18 15:58:00
10:58 AM,81.9,48.0,31,29.99,10.0,WNW,10.4,-,N/A,,Clear,300,2013-08-18 16:58:00
11:58 AM,86.4,47.7,26,29.98,10.0,NW,13.8,18.4,N/A,,Clear,320,2013-08-18 17:58:00
12:58 PM,90.3,47.3,23,29.96,10.0,NW,11.5,-,N/A,,Clear,310,2013-08-18 18:58:00
1:58 PM,92.3,45.1,20,29.94,10.0,NNW,11.5,19.6,N/A,,Clear,340,2013-08-18 19:58:00
2:58 PM,94.1,44.1,18,29.93,10.0,WNW,5.8,17.3,N/A,,Clear,300,2013-08-18 20:58:00
3:58 PM,95.5,43.3,17,29.90,10.0,NW,15.0,21.9,N/A,,Clear,320,2013-08-18 21:58:00
4:58 PM,97.5,41.5,15,29.88,10.0,WNW,11.5,17.3,N/A,,Clear,300,2013-08-18 22:58:00
5:58 PM,97.2,43.0,15,29.86,10.0,NW,8.1,20.7,N/A,,Clear,310,2013-08-18 23:58:00
6:58 PM,97.0,39.6,14,29.85,10.0,NNW,13.8,-,N/A,,Clear,330,2013-08-19 00:58:00
7:58 PM,94.5,37.0,13,29.84,10.0,NNW,16.1,-,N/A,,Clear,340,2013-08-19 01:58:00
8:58 PM,88.2,39.4,18,29.86,10.0,WNW,5.8,-,N/A,,Clear,290,2013-08-19 02:58:00
9:58 PM,81.3,38.3,21,29.89,10.0,West,8.1,-,N/A,,Clear,260,2013-08-19 03:58:00
10:58 PM,77.0,41.0,28,29.91,10.0,NW,6.9,-,N/A,,Clear,310,2013-08-19 04:58:00
11:58 PM,80.1,37.4,22,29.91,10.0,NNW,8.1,-,N/A,,Clear,340,2013-08-19 05:58:00